Total_Precipitation_Accumulation
0.00 0.02 0.07 0.10 0.10 0.11 0.11 0.10 0.11 0.11 0.11 0.09 0.07 0.08 0.08 0.08 0.13 0.19 0.20 0.14 0.10 0.09 0.10 0.17 0.21 0.16 0.18 0.23 0.27 0.31 0.37 0.38 0.31 0.24 0.24 0.24 0.20 0.20 0.25 0.25 0.29 0.37 0.18
0.00 0.02 0.07 0.11 0.11 0.11 0.11 0.08 0.11 0.11 0.08 0.07 0.07 0.07 0.07 0.09 0.15 0.15 0.12 0.08 0.06 0.06 0.09 0.17 0.23 0.19 0.20 0.27 0.37 0.44 0.49 0.43 0.33 0.23 0.26 0.28 0.25 0.25 0.27 0.25 0.35 0.38 0.19
0.00 0.01 0.05 0.10 0.11 0.10 0.09 0.08 0.16 0.16 0.09 0.08 0.09 0.08 0.06 0.06 0.08 0.08 0.07 0.05 0.04 0.04 0.06 0.14 0.22 0.20 0.22 0.31 0.41 0.44 0.47 0.44 0.34 0.26 0.36 0.73 0.61 0.35 0.30 0.36 0.35 0.25 0.22
0.00 0.01 0.03 0.08 0.13 0.12 0.10 0.13 0.26 0.25 0.16 0.11 0.10 0.08 0.05 0.04 0.09 0.16 0.16 0.06 0.04 0.04 0.05 0.12 0.19 0.18 0.21 0.31 0.36 0.35 0.35 0.32 0.34 0.39 0.63 0.93 0.86 0.53 0.51 0.50 0.40 0.26 0.24
0.00 0.02 0.11 0.15 0.13 0.11 0.14 0.24 0.37 0.33 0.27 0.18 0.09 0.06 0.04 0.05 0.08 0.15 0.11 0.06 0.02 0.03 0.05 0.10 0.16 0.16 0.17 0.21 0.24 0.25 0.30 0.39 0.49 0.56 0.73 0.76 0.76 0.63 0.59 0.54 0.47 0.33 0.29
0.00 0.02 0.09 0.15 0.13 0.14 0.22 0.33 0.37 0.39 0.43 0.27 0.12 0.06 0.08 0.08 0.09 0.13 0.11 0.06 0.02 0.02 0.03 0.05 0.10 0.15 0.16 0.19 0.21 0.24 0.34 0.47 0.55 0.61 0.70 0.64 0.61 0.53 0.49 0.47 0.46 0.40 0.32
0.00 0.02 0.05 0.15 0.15 0.17 0.26 0.34 0.32 0.38 0.43 0.30 0.12 0.11 0.12 0.08 0.07 0.11 0.13 0.05 0.02 0.01 0.01 0.03 0.06 0.10 0.14 0.18 0.19 0.23 0.29 0.28 0.37 0.51 0.69 0.68 0.50 0.36 0.39 0.42 0.43 0.41 0.37
0.00 0.01 0.03 0.10 0.12 0.16 0.26 0.36 0.30 0.32 0.34 0.24 0.14 0.13 0.10 0.09 0.08 0.11 0.09 0.04 0.01 0.00 0.00 0.01 0.06 0.09 0.11 0.14 0.18 0.23 0.24 0.18 0.22 0.23 0.30 0.50 0.51 0.38 0.30 0.38 0.41 0.35 0.33
0.02 0.01 0.02 0.03 0.05 0.09 0.18 0.30 0.34 0.34 0.31 0.17 0.13 0.10 0.10 0.10 0.08 0.06 0.04 0.02 0.00 0.00 0.00 0.01 0.04 0.05 0.06 0.09 0.13 0.17 0.20 0.15 0.18 0.15 0.13 0.30 0.35 0.28 0.24 0.29 0.37 0.41 0.40
0.03 0.01 0.01 0.02 0.03 0.07 0.09 0.18 0.33 0.40 0.34 0.21 0.15 0.13 0.11 0.08 0.05 0.04 0.01 0.00 0.00 0.00 0.00 0.01 0.01 0.02 0.04 0.05 0.08 0.14 0.15 0.14 0.15 0.10 0.10 0.19 0.26 0.24 0.25 0.21 0.22 0.23 0.25
0.04 0.01 0.01 0.01 0.02 0.09 0.17 0.16 0.31 0.43 0.38 0.21 0.15 0.11 0.11 0.11 0.10 0.09 0.02 0.00 0.00 0.00 0.00 0.01 0.01 0.01 0.01 0.02 0.07 0.12 0.09 0.11 0.14 0.10 0.07 0.10 0.14 0.15 0.17 0.13 0.12 0.12 0.11
0.08 0.07 0.04 0.01 0.02 0.05 0.15 0.38 0.54 0.45 0.33 0.22 0.20 0.10 0.19 0.22 0.19 0.11 0.02 0.01 0.01 0.00 0.00 0.01 0.01 0.01 0.00 0.00 0.03 0.05 0.06 0.07 0.11 0.08 0.04 0.06 0.08 0.07 0.07 0.06 0.05 0.05 0.04
0.15 0.13 0.10 0.05 0.03 0.04 0.16 0.38 0.58 0.65 0.57 0.51 0.30 0.15 0.20 0.14 0.05 0.03 0.01 0.03 0.03 0.01 0.00 0.00 0.00 0.00 0.00 0.00 0.00 0.02 0.03 0.04 0.08 0.09 0.04 0.04 0.05 0.06 0.06 0.05 0.03 0.02 0.02
0.27 0.25 0.19 0.15 0.09 0.06 0.08 0.14 0.25 0.30 0.32 0.34 0.22 0.10 0.10 0.09 0.04 0.01 0.01 0.01 0.02 0.01 0.00 0.00 0.00 0.00 0.00 0.00 0.00 0.01 0.02 0.03 0.13 0.17 0.12 0.08 0.09 0.12 0.12 0.07 0.03 0.03 0.03
0.36 0.42 0.39 0.28 0.23 0.18 0.16 0.16 0.12 0.18 0.20 0.19 0.20 0.15 0.09 0.07 0.04 0.03 0.01 0.00 0.00 0.00 0.00 0.00 0.00 0.00 0.00 0.00 0.00 0.01 0.03 0.06 0.15 0.14 0.17 0.21 0.24 0.27 0.25 0.21 0.14 0.07 0.05
0.44 0.50 0.55 0.46 0.39 0.32 0.26 0.22 0.21 0.25 0.26 0.23 0.16 0.14 0.12 0.08 0.05 0.04 0.02 0.01 0.01 0.00 0.00 0.00 0.00 0.00 0.00 0.00 0.00 0.00 0.00 0.03 0.09 0.11 0.15 0.25 0.35 0.31 0.35 0.37 0.29 0.19 0.15
0.49 0.51 0.54 0.55 0.54 0.50 0.47 0.42 0.35 0.38 0.40 0.35 0.29 0.21 0.15 0.12 0.08 0.07 0.06 0.04 0.02 0.01 0.00 0.00 0.00 0.00 0.00 0.00 0.00 0.00 0.00 0.00 0.01 0.02 0.03 0.08 0.20 0.32 0.40 0.41 0.36 0.30 0.24
0.45 0.45 0.49 0.51 0.55 0.60 0.62 0.62 0.61 0.56 0.56 0.46 0.41 0.32 0.23 0.19 0.17 0.16 0.14 0.11 0.07 0.04 0.02 0.02 0.01 0.00 0.00 0.00 0.00 0.00 0.00 0.00 0.00 0.00 0.01 0.02 0.07 0.15 0.28 0.29 0.28 0.30 0.26
0.41 0.40 0.42 0.46 0.48 0.59 0.67 0.70 0.76 0.76 0.73 0.62 0.54 0.43 0.37 0.37 0.37 0.36 0.34 0.30 0.21 0.11 0.07 0.04 0.02 0.01 0.00 0.01 0.00 0.00 0.00 0.00 0.00 0.00 0.01 0.01 0.02 0.05 0.10 0.09 0.09 0.11 0.15
0.32 0.34 0.38 0.42 0.44 0.52 0.66 0.78 0.93 1.01 0.96 0.93 0.81 0.64 0.63 0.68 0.74 0.76 0.69 0.65 0.51 0.32 0.22 0.13 0.11 0.08 0.05 0.03 0.01 0.01 0.00 0.00 0.00 0.00 0.01 0.01 0.01 0.01 0.02 0.02 0.05 0.04 0.04
0.22 0.25 0.30 0.34 0.41 0.50 0.57 0.71 0.93 1.18 1.26 1.33 1.25 1.02 0.93 1.00 1.14 1.22 1.13 1.04 0.85 0.67 0.55 0.46 0.49 0.46 0.29 0.10 0.09 0.08 0.03 0.01 0.01 0.01 0.01 0.01 0.02 0.02 0.01 0.01 0.02 0.04 0.03
0.15 0.16 0.22 0.29 0.39 0.47 0.56 0.73 0.89 1.03 1.01 1.15 1.27 1.20 1.07 1.05 1.16 1.23 1.33 1.24 1.04 0.95 0.97 0.93 1.02 1.03 0.68 0.32 0.29 0.32 0.20 0.12 0.04 0.02 0.01 0.01 0.02 0.04 0.03 0.01 0.00 0.01 0.02
0.10 0.11 0.15 0.20 0.31 0.44 0.59 0.82 1.03 1.22 1.28 1.32 1.23 1.28 1.25 1.15 1.16 1.20 1.30 1.32 1.18 1.11 1.14 1.18 1.33 1.52 1.23 0.81 0.56 0.59 0.49 0.44 0.26 0.07 0.02 0.03 0.03 0.03 0.04 0.03 0.02 0.01 0.01
0.07 0.08 0.11 0.19 0.33 0.53 0.74 0.99 1.24 1.44 1.46 1.34 1.37 1.38 1.24 1.13 1.08 1.10 1.18 1.25 1.27 1.19 1.24 1.23 1.20 1.48 1.59 1.28 1.02 0.75 0.57 0.48 0.41 0.28 0.10 0.04 0.05 0.04 0.04 0.04 0.03 0.02 0.01
0.13 0.15 0.21 0.40 0.64 0.87 1.08 1.32 1.60 1.61 1.50 1.40 1.39 1.35 1.27 1.22 1.18 1.16 1.24 1.25 1.19 1.18 1.22 1.39 1.44 1.57 1.65 1.52 1.34 1.16 0.99 0.78 0.50 0.46 0.40 0.18 0.07 0.04 0.03 0.02 0.04 0.03 0.02
0.42 0.55 0.75 1.00 1.17 1.24 1.35 1.46 1.58 1.58 1.59 1.53 1.34 1.25 1.22 1.23 1.26 1.30 1.32 1.24 1.13 1.11 1.17 1.31 1.46 1.56 1.70 1.69 1.44 1.22 1.13 1.01 0.90 0.75 0.56 0.42 0.24 0.08 0.04 0.03 0.02 0.02 0.03